Date,TemperatureHighF,TemperatureAvgF,TemperatureLowF,DewpointHighF,DewpointAvgF,DewpointLowF,HumidityHigh,HumidityAvg,HumidityLow,PressureMaxIn,PressureMinIn,WindSpeedMaxMPH,WindSpeedAvgMPH,GustSpeedMaxMPH,PrecipitationSumIn
2013-1-3,30.4,22.5,11.8,25.1,15.1,4.2,85,73,65,30.21,29.95,9,2,12,0.00
2013-1-4,35.6,31.9,27.9,24.1,21.9,16.9,75,66,62,29.99,29.87,15,4,22,0.06
2013-1-5,37.6,33.9,31.6,26.7,23.2,21.0,70,65,59,30.25,29.99,7,1,10,0.01
2013-1-6,38.8,36.0,32.4,31.9,28.2,21.5,81,73,64,30.04,29.85,8,2,11,0.00
2013-1-7,36.0,29.6,26.1,30.7,21.3,16.8,83,71,59,30.39,30.06,7,2,11,0.00
2013-1-8,42.3,33.8,30.0,26.6,21.6,18.0,71,61,53,30.31,30.12,8,2,13,0.00
2013-1-9,49.6,37.7,28.9,34.8,26.7,19.3,75,64,54,30.26,29.91,6,3,14,0.00
2013-1-10,41.9,40.5,37.0,32.3,30.9,25.4,75,68,56,30.58,30.29,8,0,12,0.00
2013-1-11,46.0,41.2,35.4,40.9,32.8,25.7,91,72,55,30.42,29.88,8,4,20,0.14
2013-1-12,58.8,51.3,44.6,48.9,45.3,40.6,90,80,69,30.00,29.93,5,3,11,0.00
2013-1-13,67.3,58.5,48.0,54.5,50.4,44.0,90,75,64,29.95,29.73,12,4,21,0.00
2013-1-14,54.3,38.2,30.7,49.9,28.2,17.9,87,67,56,30.38,29.73,4,1,6,0.01
2013-1-15,35.8,31.2,29.3,21.1,19.3,17.1,66,61,47,30.38,30.21,0,0,2,0.00
2013-1-16,39.4,35.0,30.2,28.7,23.2,20.2,70,62,55,30.18,29.77,5,0,8,0.00
2013-1-17,37.8,27.3,19.4,27.9,16.0,8.3,76,62,53,30.18,29.82,5,1,13,0.00
2013-1-18,32.9,23.1,16.0,13.5,8.1,1.9,73,53,34,30.41,30.02,11,2,17,0.00
2013-1-19,50.0,43.6,32.9,28.6,22.3,12.1,50,43,32,30.03,29.57,15,4,24,0.00
2013-1-20,50.9,32.9,20.3,34.8,16.8,6.4,77,52,34,30.06,29.41,18,5,29,0.13
2013-1-21,20.8,20.4,18.9,6.8,4.7,2.5,55,50,48,30.04,29.95,4,2,10,0.00
2013-1-22,16.0,10.9,8.2,1.8,-3.3,-13.1,67,54,29,30.16,29.85,5,2,10,0.00
2013-1-23,17.8,9.4,5.2,9.7,0.3,-4.6,71,65,63,30.21,30.10,2,0,8,0.00
2013-1-24,13.1,8.9,6.3,1.5,-0.5,-3.5,66,65,54,30.49,30.07,1,0,2,0.00
2013-1-25,14.0,12.9,11.1,3.6,2.6,1.8,69,63,59,30.48,30.31,3,0,5,0.00
2013-1-26,26.1,19.8,8.4,14.1,7.3,-1.6,69,58,44,30.25,30.06,5,0,7,0.00
2013-1-27,27.0,23.0,20.5,14.7,11.3,8.7,68,60,52,30.53,30.35,3,0,8,0.01
2013-1-28,28.4,26.2,23.5,23.0,14.7,12.4,81,62,56,30.35,30.05,6,2,9,0.00
2013-1-29,54.9,40.7,32.4,53.3,39.5,31.1,99,96,89,30.03,29.73,4,1,8,0.26
2013-1-30,66.0,57.9,48.6,54.2,49.6,43.2,95,75,56,29.71,29.01,15,3,26,0.14
2013-1-31,56.1,33.2,24.1,52.1,19.9,5.2,88,59,36,29.67,29.00,11,3,29,0.17
2013-2-1,24.6,21.5,19.6,17.2,10.4,3.8,82,62,46,30.17,29.66,9,2,15,0.00
2013-2-2,22.5,18.7,17.1,11.4,4.7,-0.1,66,54,45,30.17,29.95,12,3,19,0.00
2013-2-3,28.0,20.9,14.5,13.9,10.5,7.5,73,64,47,29.97,29.78,8,2,10,0.00
2013-2-4,24.3,20.4,17.6,12.0,7.4,4.1,74,57,43,29.94,29.82,6,2,13,0.00
2013-2-5,28.0,22.9,17.1,14.2,10.3,6.8,75,58,44,29.95,29.82,6,1,11,0.00
2013-2-6,29.1,25.2,20.5,22.0,13.6,4.4,75,62,40,30.38,29.84,6,2,11,0.00
2013-2-7,30.6,24.4,17.4,26.0,15.8,10.3,96,70,59,30.42,30.07,6,2,8,0.00
2013-2-8,34.2,29.6,19.9,33.4,27.1,20.0,100,91,69,30.07,29.77,5,1,9,0.00
2013-2-9,23.4,19.7,17.1,20.9,17.8,14.5,100,92,86,30.40,30.06,0,0,0,0.00
2013-2-10,31.8,20.7,17.1,26.6,17.5,14.7,90,87,78,30.40,30.19,0,0,0,0.17
2013-2-11,53.2,40.0,34.2,46.2,34.8,28.0,96,82,71,29.93,29.51,13,5,21,0.08
2013-2-12,36.5,34.5,32.7,33.5,29.7,26.6,98,83,69,29.94,29.66,5,2,11,0.00
2013-2-13,39.2,33.0,27.0,30.2,27.3,23.6,91,80,65,29.89,29.72,2,0,6,0.00
2013-2-14,41.7,35.8,27.9,37.9,34.0,24.5,100,94,65,29.90,29.75,7,2,12,0.14
2013-2-15,40.5,36.5,33.8,39.4,29.4,24.2,100,76,61,29.98,29.73,8,2,20,0.01
2013-2-16,33.8,29.8,23.5,24.4,21.7,17.0,81,72,67,29.99,29.90,4,0,8,0.01
2013-2-17,23.7,19.6,16.0,20.5,16.5,12.3,94,88,81,29.93,29.87,2,0,3,0.00
2013-2-18,31.6,22.7,13.3,20.1,13.8,7.4,87,69,55,30.23,29.90,4,2,8,0.00
2013-2-19,45.5,35.4,27.5,40.6,28.2,18.3,100,76,60,29.89,29.51,6,3,11,0.14
2013-2-20,27.3,23.3,20.5,20.0,16.2,13.6,85,74,63,30.03,29.73,9,3,17,0.00
2013-2-21,23.2,19.3,14.7,19.4,15.0,9.9,92,83,74,30.39,30.00,8,2,14,0.00
2013-2-22,35.8,28.4,20.3,32.0,24.1,16.7,100,84,73,30.35,29.99,6,2,13,0.00
2013-2-23,40.8,35.5,32.9,37.0,32.2,27.3,99,88,78,29.99,29.84,9,2,14,0.05
2013-2-24,35.1,32.8,31.6,30.9,28.4,25.8,93,84,72,30.04,29.81,5,1,13,0.01
2013-2-25,37.4,34.3,32.5,32.3,30.7,29.7,92,87,76,30.22,30.03,4,0,13,0.00
2013-2-26,43.0,36.1,32.9,32.0,31.2,30.8,92,83,65,30.22,29.98,5,1,8,0.00
2013-2-27,42.8,42.8,42.8,31.9,31.9,31.9,65,65,65,29.98,29.98,4,4,8,0.00
2013-3-2,28.8,26.2,24.3,26.2,22.6,20.3,94,86,78,29.91,29.85,0,0,0,0.00
2013-3-3,26.1,24.5,22.6,23.8,20.5,18.4,98,85,73,29.87,29.81,0,0,0,0.00
2013-3-4,31.8,27.3,23.4,25.4,21.8,18.4,85,80,71,30.03,29.86,4,2,8,0.02
2013-3-5,31.5,28.4,25.9,27.5,24.0,21.1,91,83,79,30.07,29.99,3,0,5,0.01
2013-3-6,40.3,33.9,25.3,37.3,31.5,22.1,95,91,84,30.14,29.94,4,1,6,0.00
2013-3-7,36.1,35.0,33.1,36.0,32.6,27.6,100,91,77,30.26,30.11,2,0,4,0.00
2013-3-8,39.7,35.6,32.7,31.3,28.9,27.1,86,76,67,30.40,30.24,3,0,4,0.00
2013-3-9,45.9,36.3,26.8,38.4,31.7,25.2,100,84,66,30.38,30.21,4,0,7,0.00
2013-3-10,64.8,51.8,35.8,40.4,33.9,27.7,78,52,38,30.21,29.94,11,2,18,0.00
2013-3-11,57.0,54.4,50.4,51.4,39.3,32.7,82,57,48,29.95,29.66,12,3,24,0.02
2013-3-12,56.8,42.3,36.3,53.2,40.3,32.8,100,93,82,29.90,29.66,11,1,20,0.20
2013-3-13,40.5,34.2,28.9,36.1,31.0,25.0,100,88,71,29.90,29.80,7,1,15,0.01
2013-3-14,29.5,29.5,29.5,27.7,27.7,27.7,93,93,93,29.89,29.89,2,2,7,0.00
2013-3-20,34.0,29.0,25.2,27.7,23.1,20.6,93,79,58,29.83,29.75,5,2,10,0.00
2013-3-21,34.7,27.9,22.1,28.4,21.1,15.2,100,76,52,29.81,29.70,7,2,11,0.00
2013-3-22,34.2,30.1,26.2,30.2,28.0,25.7,100,92,79,29.91,29.69,4,2,8,0.02
2013-3-23,39.9,34.3,30.4,33.1,30.0,27.7,100,85,73,29.99,29.86,4,2,6,0.02
2013-3-24,38.3,34.3,28.9,32.5,29.2,24.4,96,82,63,29.99,29.74,4,0,6,0.00
2013-3-25,39.9,36.2,33.1,35.2,31.3,27.6,98,83,72,29.72,29.62,4,1,7,0.00
2013-3-26,42.1,38.9,32.7,40.2,34.4,31.4,98,84,72,29.91,29.71,3,0,9,0.00
2013-3-27,39.0,34.7,33.8,32.3,30.5,29.7,86,85,76,29.91,29.87,5,1,9,0.00
2013-3-28,34.2,34.2,34.2,30.4,30.4,30.4,86,86,86,29.89,29.89,2,2,6,0.00
2013-3-29,34.2,34.2,34.2,30.4,30.4,30.4,86,86,86,29.89,29.89,2,2,6,0.00
2013-3-30,34.2,34.2,34.2,30.4,30.4,30.4,86,86,86,29.89,29.89,2,2,6,0.00
2013-3-31,34.2,34.2,34.2,30.4,30.4,30.4,86,86,86,29.89,29.89,2,2,6,0.00
2013-4-1,34.2,34.2,34.2,30.4,30.4,30.4,86,86,86,29.89,29.89,2,2,6,0.00
2013-4-2,36.3,30.7,25.0,32.9,23.7,20.2,100,75,52,30.08,29.91,8,3,12,0.00
2013-4-3,37.9,32.3,28.2,30.9,23.2,18.0,96,70,48,30.35,30.06,8,2,16,0.00
2013-4-4,57.4,39.1,28.2,34.5,26.1,21.3,80,61,38,30.33,29.88,11,2,18,0.00
2013-4-5,43.0,41.3,38.1,38.7,34.7,21.1,93,78,44,29.95,29.84,8,1,11,0.00
2013-4-6,42.4,42.4,42.4,38.0,38.0,38.0,84,84,84,29.95,29.95,2,2,5,0.00
2013-4-7,42.4,42.4,42.4,38.0,38.0,38.0,84,84,84,29.95,29.95,2,2,5,0.00
2013-4-8,50.5,44.7,40.6,46.6,42.0,39.3,100,90,73,30.11,29.73,3,0,5,0.06
2013-4-9,57.4,47.2,42.1,56.8,47.2,42.1,100,100,98,30.10,29.72,4,1,8,0.51
2013-4-10,44.6,40.6,39.0,44.6,40.6,39.0,100,100,100,30.09,29.87,4,0,8,0.52
2013-4-11,39.4,34.6,32.7,39.4,34.3,30.5,100,99,77,30.11,29.95,4,1,8,0.21
2013-4-12,33.1,33.1,33.1,33.1,33.1,33.1,100,100,100,30.09,30.09,2,2,6,0.00
2013-4-13,47.5,43.7,40.8,42.8,39.7,37.3,98,86,71,29.91,29.75,5,3,8,0.00
2013-4-14,43.5,40.0,36.3,39.5,35.8,30.0,100,85,69,30.19,29.93,4,2,8,0.04
2013-4-15,75.2,57.2,36.3,55.7,47.5,29.2,86,71,50,30.17,29.97,10,3,19,0.00
2013-4-16,61.9,61.2,60.8,55.0,54.4,53.9,80,78,77,30.04,30.00,9,4,17,0.00
2013-4-18,79.2,62.8,45.0,64.9,55.2,38.5,92,77,59,30.22,29.70,23,5,30,0.14
2013-4-19,75.4,60.9,43.5,66.8,55.9,38.0,100,84,72,29.76,29.38,10,4,18,0.22
2013-4-20,44.1,40.1,35.6,38.8,33.0,26.4,100,76,63,30.40,29.71,8,2,11,0.02
2013-4-21,40.6,36.6,33.3,33.5,28.2,18.4,85,72,43,30.68,30.41,4,0,7,0.00
2013-4-22,59.7,47.8,32.4,37.6,32.2,24.7,79,57,40,30.59,30.32,5,1,8,0.00
2013-4-23,63.1,53.4,41.7,45.7,40.9,34.8,84,64,51,30.32,29.94,4,2,9,0.00
2013-4-24,69.8,55.9,40.8,62.2,52.2,40.6,100,88,63,29.97,29.54,13,4,20,0.13
2013-4-25,53.8,44.8,37.4,44.1,39.7,36.8,100,84,57,30.30,29.97,8,1,11,0.06
2013-4-26,48.2,43.8,40.3,44.9,42.1,39.8,100,94,74,30.46,30.29,2,0,5,0.00
2013-4-27,64.0,53.0,40.8,45.4,41.6,37.1,92,67,46,30.43,30.21,7,1,14,0.00
2013-4-28,77.4,62.8,52.3,55.8,48.1,42.3,100,62,37,30.21,30.01,6,2,10,0.06
2013-4-29,67.1,62.2,51.1,58.3,53.6,51.1,100,74,62,30.05,29.97,12,2,18,0.07
2013-4-30,76.3,65.1,57.4,56.7,53.7,50.8,94,68,45,30.22,30.03,10,2,18,0.00
2013-5-1,79.7,68.2,60.1,52.9,44.2,31.1,75,47,19,30.34,30.22,7,0,11,0.00
2013-5-2,71.2,62.0,52.9,44.6,39.2,29.9,58,44,29,30.40,30.31,7,0,11,0.00
2013-5-3,60.3,60.3,60.3,43.1,43.1,43.1,53,53,53,30.32,30.32,0,0,0,0.00
2013-5-4,71.1,62.9,55.8,46.2,42.3,37.3,62,47,37,30.28,30.15,3,0,7,0.07
2013-5-5,68.4,59.1,50.7,49.1,45.3,40.6,79,61,41,30.19,30.08,4,0,6,0.00
2013-5-6,68.9,59.6,53.2,47.8,42.0,34.9,73,53,35,30.14,30.01,6,0,9,0.00
2013-5-7,71.8,66.1,52.2,54.9,52.4,45.0,88,62,52,30.11,30.04,0,0,0,0.00
2013-5-9,62.6,56.2,53.1,61.1,55.3,52.5,99,97,83,29.93,29.86,2,0,4,0.12
2013-5-10,74.8,63.0,53.6,64.3,59.0,52.8,99,88,63,29.93,29.73,7,1,11,0.35
2013-5-11,60.8,55.6,50.0,60.2,52.1,45.7,99,89,65,29.75,29.65,4,1,11,0.08
2013-5-12,53.4,46.3,41.0,47.9,37.8,28.1,96,74,38,29.89,29.67,4,2,8,0.07
2013-5-13,53.2,44.1,38.3,35.9,33.0,30.7,81,66,42,30.11,29.90,7,1,13,0.00
2013-5-14,56.8,46.4,36.7,41.5,36.2,32.6,96,69,45,30.14,29.96,4,1,5,0.00
2013-5-15,83.5,75.2,48.2,60.8,56.9,32.8,97,55,46,29.95,29.50,9,4,17,0.08
2013-5-16,83.5,67.2,52.3,60.6,49.0,40.6,77,53,34,30.01,29.51,5,2,10,0.00
2013-5-17,61.5,53.0,43.5,48.4,45.0,40.5,97,75,53,30.22,30.01,25,0,0,0.00
2013-5-18,68.5,57.0,44.6,53.6,46.1,37.3,99,70,41,30.25,30.14,3,0,5,0.00
2013-5-19,81.1,68.4,59.5,64.5,58.3,50.8,85,71,53,30.14,29.98,9,1,14,0.00
2013-5-20,78.6,70.0,56.8,67.7,62.9,53.8,95,79,64,30.04,29.93,9,1,14,0.00
2013-5-21,76.5,75.1,56.5,66.4,65.8,56.2,99,73,71,29.93,29.78,2,0,3,0.07
2013-5-22,86.0,66.6,56.7,72.9,62.7,56.4,99,88,57,29.80,29.63,8,1,14,0.20
2013-5-23,77.9,67.2,47.3,65.8,59.5,47.0,99,78,53,29.89,29.71,11,2,18,0.06
2013-5-24,53.1,45.7,41.2,47.0,43.0,40.8,99,91,66,30.18,29.89,3,1,8,0.12
2013-5-25,60.1,51.4,45.1,46.6,42.3,38.8,90,72,48,30.20,30.11,3,0,8,0.01
2013-5-26,65.1,54.7,48.0,46.4,41.6,35.3,86,64,37,30.18,30.08,5,0,10,0.00
2013-5-27,66.0,55.3,46.9,47.7,40.5,28.3,78,59,27,30.25,30.11,6,1,11,0.00
2013-5-28,63.5,58.9,53.6,61.2,51.0,39.7,99,77,54,30.14,29.92,5,1,11,0.43
2013-5-29,83.7,68.5,60.1,70.6,63.1,59.8,99,85,54,29.96,29.92,10,2,18,0.32
2013-5-30,91.0,80.8,68.2,71.4,65.4,55.6,86,62,33,30.12,30.02,5,1,11,0.00
2013-5-31,92.3,79.3,70.3,69.5,66.0,62.7,83,66,39,30.08,29.95,8,2,12,0.00
2013-6-1,91.6,79.4,70.2,70.1,66.1,63.6,84,65,44,29.99,29.79,10,3,16,0.00
2013-6-2,79.7,71.3,58.8,69.2,63.9,55.0,99,80,47,29.88,29.70,9,2,14,0.37
2013-6-3,64.0,58.9,52.3,54.6,47.7,41.8,88,67,48,30.00,29.89,4,1,8,0.00
2013-6-4,58.6,55.9,50.4,48.3,46.7,43.3,83,71,66,30.12,29.99,3,0,7,0.00
2013-6-5,58.6,58.6,58.6,47.3,47.3,47.3,66,66,66,30.12,30.12,0,0,4,0.00
2013-6-6,58.6,58.6,57.6,57.5,47.5,47.3,99,67,66,30.12,29.96,1,0,4,0.45
2013-6-7,59.2,56.4,55.0,58.9,56.1,54.2,99,99,97,29.84,29.78,1,0,2,0.09
2013-6-8,64.2,60.1,55.4,61.2,57.8,54.6,99,92,79,30.06,29.79,4,0,8,0.04
2013-6-9,71.4,64.0,57.6,59.9,56.2,53.9,89,76,59,30.19,30.06,7,1,9,0.00
2013-6-10,71.1,65.9,62.8,66.0,61.5,56.1,99,86,73,30.12,29.71,5,0,13,0.07
2013-6-11,77.9,63.6,57.0,66.1,62.3,54.9,99,96,85,29.83,29.63,4,1,9,0.18
2013-6-12,59.9,58.8,57.2,58.7,57.7,56.4,99,96,94,29.85,29.83,2,0,3,0.00
2013-6-13,67.5,60.7,55.8,60.2,58.3,55.5,99,92,74,29.78,29.53,3,1,5,0.66
2013-6-14,71.6,66.0,55.0,62.3,59.8,54.2,99,81,66,29.97,29.78,3,0,6,0.01
2013-6-15,77.9,64.1,55.8,57.6,52.9,48.5,83,68,47,30.04,29.93,7,0,11,0.00
2013-6-16,75.6,69.6,62.8,69.0,62.4,52.4,99,79,56,29.95,29.69,8,2,13,0.22
2013-6-17,77.7,68.0,62.8,65.4,61.7,58.3,97,81,61,29.94,29.81,8,1,12,0.00
2013-6-18,68.2,61.5,56.8,59.0,54.9,49.6,95,80,57,30.01,29.90,2,0,6,0.00
2013-6-19,67.3,59.1,50.5,55.4,49.4,41.5,95,72,39,30.19,30.02,1,0,3,0.00
2013-6-20,70.2,60.0,48.7,56.2,51.2,47.2,99,75,44,30.24,30.19,2,0,4,0.00
2013-6-21,76.5,65.8,56.5,59.9,55.1,47.9,87,69,50,30.26,30.17,3,0,7,0.00
2013-6-22,81.3,68.0,60.8,66.6,61.6,56.4,91,80,61,30.17,30.09,7,2,11,0.00
2013-6-23,87.6,81.2,72.7,75.0,70.7,65.3,92,71,53,30.08,30.00,10,1,13,0.00
2013-6-24,89.6,82.2,75.0,72.8,67.4,62.8,78,62,44,30.06,29.94,9,3,15,0.00
2013-6-25,79.2,77.3,73.8,70.3,68.8,64.7,83,75,62,29.95,29.90,7,3,13,0.00
2013-7-4,77.2,77.0,76.8,75.4,75.3,75.2,95,94,94,30.19,30.19,1,0,2,0.06
2013-8-6,71.8,69.2,67.8,63.6,63.0,62.3,84,81,73,30.02,30.00,4,1,4,0.00
2013-8-7,83.3,74.1,67.3,69.3,65.5,60.9,85,75,58,30.00,29.89,15,5,15,0.00
2013-8-8,78.8,73.7,68.2,73.3,70.1,66.0,99,89,77,29.99,29.91,8,2,9,0.07
2013-8-9,77.7,71.7,68.5,72.8,68.4,60.6,99,90,63,29.94,29.87,13,1,13,0.79
2013-8-10,73.8,67.7,58.6,63.0,58.5,51.9,92,73,48,30.10,29.93,11,1,11,0.79
2013-8-11,73.9,65.5,56.8,62.0,59.1,55.8,99,81,60,30.13,30.03,8,1,8,0.00
2013-8-12,76.1,69.1,61.0,66.8,62.8,58.2,93,80,60,30.06,29.86,7,1,7,0.01
2013-8-13,74.3,67.4,60.8,69.5,62.3,49.7,99,84,62,29.87,29.74,13,2,13,0.28
2013-8-14,71.2,62.9,55.6,58.3,53.5,49.2,96,73,47,30.08,29.81,14,3,14,0.00
2013-8-15,76.5,65.9,55.8,59.3,53.7,50.5,87,66,44,30.13,30.07,13,4,13,0.00
2013-8-16,75.9,66.5,57.2,62.8,57.6,53.9,90,74,51,30.22,30.10,10,2,10,0.00
2013-8-17,69.3,66.0,58.6,62.0,60.4,57.4,97,83,76,30.30,30.21,8,2,8,0.00
2013-8-18,69.3,69.3,69.3,61.4,61.4,61.4,76,76,76,30.29,30.29,2,2,6,0.00
2013-8-19,69.3,69.3,69.3,61.4,61.4,61.4,76,76,76,30.29,30.29,2,2,6,0.00
2013-8-20,69.3,69.3,69.3,61.4,61.4,61.4,76,76,76,30.29,30.29,2,2,6,0.00
2013-8-21,69.3,69.3,69.3,61.4,61.4,61.4,76,76,76,30.29,30.29,2,2,6,0.00
2013-8-22,69.3,69.3,69.3,61.4,61.4,61.4,76,76,76,30.29,30.29,2,2,6,0.00
2013-8-23,69.3,69.3,69.3,61.4,61.4,61.4,76,76,76,30.29,30.29,2,2,6,0.00
2013-8-24,69.3,69.3,69.3,61.4,61.4,61.4,76,76,76,30.29,30.29,2,2,6,0.00
2013-8-25,69.3,69.3,69.3,61.4,61.4,61.4,76,76,76,30.29,30.29,2,2,6,0.00
2013-8-26,79.9,71.1,69.3,73.4,66.1,61.4,98,85,75,30.29,29.93,10,2,10,0.91
2013-8-27,79.0,72.9,70.2,73.6,71.2,69.6,99,95,82,29.97,27.64,10,2,10,0.01
2013-8-28,77.4,74.7,70.0,73.9,72.3,69.4,98,92,88,29.91,29.86,5,1,5,0.00
2013-8-29,78.6,75.7,68.0,73.8,72.4,67.7,99,90,82,30.08,29.91,4,1,4,0.00
2013-8-30,86.9,75.4,66.4,74.2,68.5,64.6,99,81,48,30.03,29.78,8,3,10,0.00
2013-8-31,79.0,73.7,69.1,74.8,71.7,68.3,99,93,83,29.89,29.74,8,1,8,0.15
2013-9-1,78.6,72.2,68.9,72.9,70.1,68.6,99,93,81,29.87,29.78,5,1,5,0.00
2013-9-2,82.2,76.8,67.3,75.2,70.2,59.5,99,80,75,29.81,29.72,8,2,8,0.01
2013-9-3,68.4,65.7,62.6,61.1,58.8,56.8,84,78,68,29.93,29.78,13,4,13,0.00
2013-9-4,80.8,69.7,60.3,65.3,57.3,48.2,88,68,33,29.98,29.93,17,5,17,0.00
2013-9-5,68.0,62.8,54.7,63.3,51.2,42.5,87,67,47,30.21,29.97,8,1,8,0.00
2013-9-6,71.4,59.7,48.6,56.0,49.8,45.3,96,72,42,30.27,30.07,10,2,10,0.00
2013-9-7,65.8,62.1,57.7,62.3,54.8,49.6,92,78,62,30.07,29.87,13,5,13,0.06
2013-9-8,66.9,62.5,52.5,62.2,54.4,44.7,92,77,49,30.09,29.87,6,3,8,0.01
2013-9-9,76.1,62.3,48.9,64.2,54.4,46.7,98,77,46,30.14,29.96,17,3,17,0.00
2013-9-10,93.6,81.1,69.6,76.6,70.8,62.8,98,72,52,30.01,29.88,21,7,21,0.45
2013-9-11,95.4,85.4,77.7,75.4,73.0,67.5,82,68,44,30.03,29.89,16,6,16,0.00
2013-9-12,77.7,71.1,63.9,71.0,67.9,61.2,97,90,73,29.93,29.74,13,3,13,0.17
2013-9-13,64.0,61.1,58.8,62.1,59.8,56.8,98,95,91,29.82,29.74,7,2,7,0.43
2013-9-14,61.5,56.1,50.9,52.4,47.1,42.4,85,72,57,30.11,29.99,11,1,11,0.00
2013-9-15,69.8,59.3,49.8,55.5,49.9,43.6,95,72,53,30.14,30.04,13,4,13,0.11
2013-9-16,55.9,53.1,47.5,55.7,50.4,43.5,99,91,70,30.38,30.05,10,2,11,0.08
2013-9-17,62.2,52.0,42.8,50.0,46.0,42.3,98,82,52,30.48,30.30,8,1,8,0.00
2013-9-18,71.4,62.6,50.7,56.9,51.6,44.3,98,69,41,30.25,30.09,12,1,12,0.00
2013-9-19,78.3,66.4,56.7,63.2,58.1,50.4,98,76,45,30.13,30.00,11,2,11,0.00
2013-9-20,85.3,71.2,60.1,66.4,62.1,57.2,98,75,50,30.00,29.78,13,4,13,0.00
2013-9-21,73.8,65.1,55.6,64.1,61.5,55.0,99,89,66,29.78,29.62,12,3,12,0.86
2013-9-22,56.7,54.1,52.3,55.0,48.0,42.7,98,80,67,30.01,29.72,12,3,12,0.00
2013-9-23,57.9,53.5,48.6,47.9,46.2,44.3,94,76,65,30.15,30.00,7,2,7,0.00
2013-9-24,61.7,52.7,44.6,51.7,47.4,43.6,99,83,63,30.13,29.99,6,1,6,0.00
2013-9-25,65.3,54.6,46.4,58.3,50.5,45.9,99,87,67,30.01,29.95,10,2,10,0.00
2013-9-26,67.3,56.3,48.0,61.8,53.5,47.8,99,91,77,30.16,30.00,8,1,8,0.00
2013-9-27,64.6,57.2,50.5,58.7,54.7,50.3,99,92,77,30.27,30.16,4,1,4,0.00
2013-9-28,71.6,54.3,47.8,62.5,52.2,47.6,99,93,66,30.30,30.16,6,2,6,0.00
2013-9-29,77.0,62.8,52.2,57.9,53.8,50.1,94,74,47,30.17,29.99,12,2,12,0.00
2013-9-30,73.6,64.9,58.5,63.9,58.2,53.4,89,79,69,30.01,29.94,10,3,10,0.00
2013-10-1,71.2,67.2,61.7,65.7,61.9,58.0,97,83,66,30.03,29.91,11,2,11,0.00
2013-10-2,71.6,67.5,63.5,64.3,62.0,53.6,89,83,54,30.09,29.91,11,4,11,0.00
2013-10-3,67.8,63.3,53.6,59.8,57.5,51.8,97,82,61,30.13,30.02,6,0,6,0.01
2013-10-4,63.1,61.1,58.8,62.3,60.5,58.0,99,98,97,30.07,29.98,6,0,6,0.30
2013-10-5,61.9,60.9,60.3,61.3,59.5,57.4,98,95,89,30.09,30.03,5,1,5,0.02
2013-10-6,78.8,68.4,61.2,76.5,66.3,59.7,99,93,75,30.03,29.74,19,1,19,0.33
2013-10-7,75.2,63.0,53.8,67.4,57.2,48.4,99,82,64,30.04,29.63,25,5,25,0.47
2013-10-8,62.8,54.5,47.1,51.4,48.5,46.0,97,81,61,30.35,30.04,10,2,10,0.00
2013-10-9,64.2,53.1,44.1,54.6,49.3,43.5,99,88,63,30.40,30.27,7,1,7,0.00
2013-10-10,63.1,52.5,41.7,54.2,47.8,41.3,99,85,62,30.28,30.15,8,1,8,0.00
2013-10-11,64.8,53.4,46.0,58.1,51.3,45.2,99,93,73,30.16,30.11,4,1,4,0.00
2013-10-12,75.7,60.3,46.0,60.4,47.3,40.6,99,71,30,30.19,30.12,6,2,6,0.00
2013-10-13,74.7,63.2,57.7,63.3,57.1,50.9,98,81,61,30.27,30.17,11,3,11,0.08
2013-10-14,63.0,57.3,49.5,61.0,55.1,49.2,99,93,76,30.34,30.25,10,1,10,0.17
2013-10-15,51.1,47.5,45.1,50.8,47.0,44.3,99,98,97,30.30,30.22,8,2,8,0.01
2013-10-16,63.9,60.5,60.3,56.3,54.3,50.5,83,80,63,29.94,29.86,11,0,11,0.01
2013-10-17,65.7,59.2,54.1,54.8,54.2,49.1,98,84,57,29.89,29.66,8,0,8,0.38
2013-10-18,62.1,55.0,50.4,53.3,46.1,36.5,97,74,41,29.91,29.70,19,4,19,0.02
2013-10-19,65.7,56.1,46.0,49.8,44.9,41.7,93,67,46,30.63,29.61,16,5,16,0.06
2013-10-20,56.3,49.3,43.9,46.9,42.2,39.0,95,77,55,29.98,29.73,17,5,17,0.00
2013-10-21,68.0,57.1,47.7,50.8,41.1,35.8,95,58,31,29.97,29.78,21,5,21,0.00
2013-10-22,53.8,48.2,43.5,50.1,37.5,26.3,99,69,37,29.83,29.70,10,3,10,0.20
2013-10-23,47.3,43.2,39.2,40.9,36.7,30.3,87,78,59,29.80,29.68,10,2,10,0.01
2013-10-24,50.7,41.9,36.9,40.4,35.3,31.8,99,78,51,30.00,29.75,20,5,20,0.27
2013-10-25,51.8,43.5,38.7,41.2,38.8,36.7,99,84,64,30.17,30.00,10,3,10,0.02
2013-10-26,47.5,44.5,40.5,38.6,33.6,28.2,91,66,49,30.11,29.76,23,8,23,0.01
2013-10-27,48.2,44.1,39.7,40.0,37.9,34.8,94,79,66,30.05,29.78,14,3,14,0.00
2013-10-28,49.5,43.6,32.4,43.2,34.1,25.4,84,70,53,30.39,30.00,14,2,14,0.00
2013-10-29,45.9,37.3,29.5,32.8,29.3,24.2,89,73,53,30.47,30.30,7,0,7,0.00
2013-10-30,53.8,44.3,37.8,46.2,41.4,32.8,99,90,68,30.30,30.09,6,0,6,0.06
2013-10-31,66.9,56.5,44.8,61.2,53.4,40.9,99,90,79,30.09,29.37,17,4,17,0.39
2013-11-1,65.8,59.0,50.2,60.7,51.2,43.8,98,77,53,29.68,29.15,30,8,30,0.27
2013-11-2,51.6,46.8,40.6,48.7,45.0,36.1,99,94,83,29.99,29.60,9,3,9,0.22
2013-11-3,40.6,36.5,33.8,36.3,27.2,21.8,85,69,59,30.52,29.99,10,2,10,0.00
2013-11-4,43.9,36.0,27.5,27.4,21.2,11.8,89,58,28,30.63,30.44,8,2,8,0.00
2013-11-5,60.3,47.9,37.2,37.1,28.7,19.6,55,47,37,30.45,30.31,14,5,14,0.00
2013-11-6,66.6,57.5,49.3,56.4,44.3,35.0,90,62,46,30.31,29.77,22,6,22,0.07
2013-11-7,59.4,46.0,40.6,57.3,40.4,30.2,97,81,55,29.99,29.76,13,3,13,0.20
2013-11-8,42.8,40.3,36.9,35.0,31.6,27.4,88,71,56,30.21,29.91,13,2,13,0.00
2013-11-9,50.5,44.0,38.3,43.3,32.0,27.5,89,63,47,30.20,29.75,16,4,16,0.02
2013-11-10,51.4,46.0,41.5,43.3,36.4,31.0,82,69,61,30.13,29.75,16,4,16,0.02
2013-11-11,47.3,39.7,32.0,39.1,32.8,22.8,97,77,54,30.14,29.90,18,4,18,0.40
2013-11-12,34.5,31.0,28.6,27.9,23.4,18.5,84,73,62,30.37,30.08,9,3,9,0.07
2013-11-13,39.2,32.6,24.4,27.6,19.2,10.8,69,58,43,30.40,30.03,22,5,22,0.01
2013-11-14,51.3,43.9,36.9,28.3,18.4,13.1,57,37,24,30.08,29.99,21,6,21,0.00
2013-11-15,53.6,47.4,42.6,24.1,19.3,14.2,39,32,27,30.09,30.02,17,5,17,0.00
2013-11-16,60.4,52.6,43.5,41.0,35.0,21.6,67,52,34,30.23,30.02,10,2,10,0.00
2013-11-17,62.2,56.8,51.4,55.3,50.2,40.6,97,79,66,30.02,29.35,27,5,27,0.22
2013-11-18,55.2,53.9,53.6,49.8,49.2,48.8,85,84,81,29.42,29.37,13,8,15,0.02
2013-11-22,61.7,54.4,49.6,55.3,45.3,36.4,97,72,49,30.11,29.71,9,3,9,0.11
2013-11-23,62.2,41.1,20.5,55.3,32.6,9.0,93,72,48,30.14,29.36,11,7,11,0.47
2013-11-24,26.4,23.1,19.4,16.5,11.5,5.3,80,62,44,30.39,30.13,8,5,8,0.00
2013-11-25,36.0,29.6,20.8,16.2,9.7,2.4,74,46,24,30.34,30.09,14,6,14,0.00
2013-11-26,37.9,34.9,32.5,31.8,26.7,19.6,95,73,53,30.12,29.82,11,4,11,0.00
2013-11-27,36.0,32.4,25.3,34.1,27.8,15.6,98,84,65,29.85,29.60,8,4,8,0.34
2013-11-28,29.8,26.7,21.7,16.9,12.9,9.0,75,56,44,30.41,29.86,11,2,11,0.01
2013-11-29,31.5,25.3,17.8,21.2,13.8,9.4,84,62,51,30.72,30.40,7,2,7,0.04
2013-11-30,32.7,25.3,13.5,21.0,13.8,6.8,79,62,47,30.71,30.16,17,4,17,0.00
2013-12-1,41.5,35.9,32.5,33.9,27.9,20.6,93,73,57,30.16,29.93,14,4,14,0.06
2013-12-2,41.4,37.8,34.9,34.7,33.1,30.3,91,83,73,29.94,29.85,7,1,7,0.00
2013-12-3,40.5,34.9,29.8,32.2,29.4,25.8,86,80,68,30.00,29.89,8,1,8,0.00
2013-12-4,47.5,39.5,33.3,39.4,34.3,27.5,92,81,69,29.99,29.86,6,0,6,0.00
2013-12-5,64.2,52.7,41.2,53.1,44.1,30.7,83,73,52,29.98,29.69,21,5,21,0.01
2013-12-6,41.0,35.5,32.7,34.4,26.8,20.8,88,71,59,30.22,29.98,12,1,12,0.22
2013-12-7,34.5,30.0,26.4,25.8,17.2,10.6,80,59,39,30.53,30.20,11,3,11,0.00
2013-12-8,30.4,27.0,22.5,11.9,10.4,7.5,58,49,38,30.53,30.43,11,3,11,0.00
2013-12-9,29.1,29.1,29.1,11.9,11.9,11.9,48,48,48,30.43,30.43,2,2,3,0.00